sampling_time,wmo_synop_id,msc_id,stn_nam,stn_elev,lat,long,stn_typ,date_tm,rpt_typ,result_time,crnt_buoy_lat,crnt_buoy_lat_qa_summary,crnt_buoy_long,crnt_buoy_long_qa_summary,avg_air_temp_pst10mts,avg_air_temp_pst10mts_qa_summary,avg_sea_sfc_temp_pst10mts,avg_sea_sfc_temp_pst10mts_qa_summary,avg_batry_volt_pst10mts,avg_batry_volt_pst10mts_qa_summary,avg_solr_panl_crnt_pst10mts,avg_solr_panl_crnt_pst10mts_qa_summary,avg_wtr_lvl_snsr_volt_pst10mts,avg_wtr_lvl_snsr_volt_pst10mts_qa_summary,avg_wave_hgt_pst20mts,avg_wave_hgt_pst20mts_qa_summary,pk_wave_hgt_pst20mts,pk_wave_hgt_pst20mts_qa_summary,sig_wave_pd_pst20mts,sig_wave_pd_pst20mts_qa_summary,sig_wave_hgt_pst20mts,sig_wave_hgt_pst20mts_qa_summary,avg_max_wave_hgt_pst20mts,avg_max_wave_hgt_pst20mts_qa_summary,avg_max_wave_pd_pst20mts,avg_max_wave_pd_pst20mts_qa_summary,avg_wave_pd_pst20mts,avg_wave_pd_pst20mts_qa_summary,pk_wave_pd_pst20mts,pk_wave_pd_pst20mts_qa_summary,avg_stn_pres_pst10mts,avg_stn_pres_pst10mts_qa_summary,avg_wnd_spd_pst10mts,avg_wnd_spd_pst10mts_qa_summary,avg_wnd_dir_pst10mts,avg_wnd_dir_pst10mts_qa_summary,max_avg_wnd_spd_pst10mts,max_avg_wnd_spd_pst10mts_qa_summary,wnd_snsr_vert_disp,wnd_snsr_vert_disp_qa_summary,pres_tend_char_pst3hrs,pres_tend_char_pst3hrs_data_flag,pres_tend_amt_pst3hrs,pres_tend_amt_pst3hrs_data_flag,avg_mslp_pst10mts,avg_mslp_pst10mts_data_flag,avg_stn_pres_pst10mts_1,avg_stn_pres_pst10mts_1_qa_summary,avg_stn_pres_pst10mts_2,avg_stn_pres_pst10mts_2_qa_summary,avg_wnd_spd_pst10mts_1,avg_wnd_spd_pst10mts_1_qa_summary,avg_wnd_spd_pst10mts_2,avg_wnd_spd_pst10mts_2_qa_summary,avg_wnd_dir_pst10mts_1,avg_wnd_dir_pst10mts_1_qa_summary,avg_wnd_dir_pst10mts_2,avg_wnd_dir_pst10mts_2_qa_summary,max_avg_wnd_spd_pst10mts_1,max_avg_wnd_spd_pst10mts_1_qa_summary,max_avg_wnd_spd_pst10mts_2,max_avg_wnd_spd_pst10mts_2_qa_summary
2021-09-01T00:00:00Z,44490,9300300,WEST BAY OF FUNDY,0.0,44.66056,-66.3686,18,2021-09-01T00:00:00.000Z,108,2021-09-01T00:03:49.460Z,44.6625,100,-66.36533,100,16.4,100,16.4,100,12.8,100,0.0,100,3.5,100,0.3,100,0.9,100,4.7,100,0.5,100,0.6,100,4.5,100,3.8,100,5.6,100,1003.9,100,20.2,100,233,100,23.8,100,5.0,100,3,1,0.7,1,1003.9,1,1003.9,100,1003.9,100,20.2,100,19.8,100,233,100,236,100,23.8,100,24.5,100
2021-09-01T00:10:00Z,44490,9300300,WEST BAY OF FUNDY,0.0,44.66056,-66.3686,18,2021-09-01T00:10:00.000Z,110,2021-09-01T00:13:00.633Z,44.66253,100,-66.36561999999999,100,16.9,100,16.9,100,12.8,100,0.0,100,3.5,100,,-1,,-1,,-1,,-1,,-1,,-1,,-1,,-1,1004.1,100,19.4,100,230,100,23.0,100,5.0,100,3,1,0.9,1,1004.1,1,1004.1,100,1004.1,100,19.4,100,19.4,100,230,100,233,100,23.0,100,22.3,100
2021-09-01T00:20:00Z,44490,9300300,WEST BAY OF FUNDY,0.0,44.66056,-66.3686,18,2021-09-01T00:20:00.000Z,110,2021-09-01T00:23:00.407Z,44.66253,100,-66.3657,100,16.3,100,16.4,100,12.8,100,0.0,100,3.5,100,,-1,,-1,,-1,,-1,,-1,,-1,,-1,,-1,1004.2,100,19.1,100,235,100,22.3,100,5.0,100,3,1,1.1,1,1004.2,1,1004.2,100,1004.1,100,19.1,100,18.7,100,235,100,238,100,22.3,100,22.3,100
2021-09-01T00:30:00Z,44490,9300300,WEST BAY OF FUNDY,0.0,44.66056,-66.3686,18,2021-09-01T00:30:00.000Z,110,2021-09-01T00:33:12.632Z,44.66258,100,-66.36575,100,16.4,100,16.4,100,12.8,100,0.0,100,3.5,100,,-1,,-1,,-1,,-1,,-1,,-1,,-1,,-1,1004.2,100,20.2,100,236,100,24.5,100,5.0,100,3,1,1.0,1,1004.2,1,1004.2,100,1004.2,100,20.2,100,19.8,100,236,100,239,100,24.5,100,24.5,100
2021-09-01T00:40:00Z,44490,9300300,WEST BAY OF FUNDY,0.0,44.66056,-66.3686,18,2021-09-01T00:40:00.000Z,110,2021-09-01T00:43:16.039Z,44.66253,100,-66.36577,100,16.6,100,16.4,100,12.8,100,0.0,100,3.5,100,,-1,,-1,,-1,,-1,,-1,,-1,,-1,,-1,1004.2,100,20.9,100,241,100,25.9,100,5.0,100,3,1,1.1,1,1004.2,1,1004.2,100,1004.2,100,20.9,100,20.5,100,241,100,244,100,25.9,100,25.2,100
2021-09-01T00:50:00Z,44490,9300300,WEST BAY OF FUNDY,0.0,44.66056,-66.3686,18,2021-09-01T00:50:00.000Z,110,2021-09-01T00:53:18.179Z,44.66255,100,-66.36572,100,16.7,100,16.3,100,12.8,100,0.0,100,3.5,100,,-1,,-1,,-1,,-1,,-1,,-1,,-1,,-1,1004.3,100,20.5,100,245,100,23.4,100,5.0,100,3,1,1.3,1,1004.3,1,1004.3,100,1004.3,100,20.5,100,20.2,100,245,100,248,100,23.4,100,23.0,100
2021-09-01T01:00:00Z,44490,9300300,WEST BAY OF FUNDY,0.0,44.66056,-66.3686,18,2021-09-01T01:00:00.000Z,108,2021-09-01T01:04:17.289Z,44.66257,100,-66.36588,100,16.6,100,16.3,100,12.8,100,0.0,100,3.5,100,0.3,100,0.8,100,5.3,100,0.5,100,0.6,100,5.5,100,4.0,100,6.7,100,1004.3,100,19.8,100,243,100,23.0,100,5.0,100,1,1,1.5,1,1004.3,1,1004.3,100,1004.3,100,19.8,100,19.4,100,243,100,245,100,23.0,100,22.7,100
2021-09-01T01:10:00Z,44490,9300300,WEST BAY OF FUNDY,0.0,44.66056,-66.3686,18,2021-09-01T01:10:00.000Z,110,2021-09-01T01:17:16.708Z,44.6626,100,-66.36598000000001,100,16.5,100,16.3,100,12.8,100,0.0,100,3.5,100,,-1,,-1,,-1,,-1,,-1,,-1,,-1,,-1,1004.4,100,19.4,100,237,100,22.7,100,5.0,100,1,1,1.5,1,1004.4,1,1004.4,100,1004.3,100,19.4,100,18.7,100,237,100,240,100,22.7,100,22.3,100
2021-09-01T01:20:00Z,44490,9300300,WEST BAY OF FUNDY,0.0,44.66056,-66.3686,18,2021-09-01T01:20:00.000Z,110,2021-09-01T01:23:20.498Z,44.66257,100,-66.36588,100,16.6,100,16.3,100,12.8,100,0.0,100,3.5,100,,-1,,-1,,-1,,-1,,-1,,-1,,-1,,-1,1004.3,100,19.4,100,240,100,23.4,100,5.0,100,1,1,1.4,1,1004.3,1,1004.3,100,1004.3,100,19.4,100,18.7,100,240,100,243,100,23.4,100,23.0,100
2021-09-01T01:30:00Z,44490,9300300,WEST BAY OF FUNDY,0.0,44.66056,-66.3686,18,2021-09-01T01:30:00.000Z,110,2021-09-01T01:33:18.808Z,44.66258,100,-66.36598000000001,100,16.6,100,16.3,100,12.8,100,0.0,100,3.5,100,,-1,,-1,,-1,,-1,,-1,,-1,,-1,,-1,1004.2,100,18.7,100,239,100,21.6,100,5.0,100,1,1,1.2,1,1004.2,1,1004.2,100,1004.2,100,18.7,100,18.0,100,239,100,241,100,21.6,100,20.9,100
2021-09-01T01:40:00Z,44490,9300300,WEST BAY OF FUNDY,0.0,44.66056,-66.3686,18,2021-09-01T01:40:00.000Z,110,2021-09-01T01:43:21.703Z,44.66257,100,-66.36593,100,16.5,100,16.3,100,12.8,100,0.0,100,3.5,100,,-1,,-1,,-1,,-1,,-1,,-1,,-1,,-1,1004.3,100,17.3,100,214,100,20.5,100,5.0,100,1,1,1.1,1,1004.3,1,1004.3,100,1004.3,100,17.3,100,16.9,100,214,100,215,100,20.5,100,20.5,100
2021-09-01T01:50:00Z,44490,9300300,WEST BAY OF FUNDY,0.0,44.66056,-66.3686,18,2021-09-01T01:50:00.000Z,110,2021-09-01T01:53:31.133Z,44.66258,100,-66.36595,100,16.4,100,16.3,100,12.8,100,0.0,100,3.5,100,,-1,,-1,,-1,,-1,,-1,,-1,,-1,,-1,1004.3,100,15.8,100,212,100,18.4,100,5.0,100,1,1,1.1,1,1004.3,1,1004.3,100,1004.3,100,15.8,100,15.5,100,212,100,212,100,18.4,100,18.4,100
2021-09-01T02:00:00Z,44490,9300300,WEST BAY OF FUNDY,0.0,44.66056,-66.3686,18,2021-09-01T02:00:00.000Z,108,2021-09-01T02:03:21.646Z,44.66262,100,-66.36603000000001,100,16.6,100,16.3,100,12.8,100,0.0,100,3.5,100,0.3,100,0.9,100,5.4,100,0.5,100,0.6,100,5.7,100,4.2,100,6.5,100,1004.5,100,18.0,100,222,100,22.0,100,5.0,100,1,1,1.1,1,1004.5,1,1004.5,100,1004.4,100,18.0,100,17.6,100,222,100,223,100,22.0,100,22.0,100
2021-09-01T02:10:00Z,44490,9300300,WEST BAY OF FUNDY,0.0,44.66056,-66.3686,18,2021-09-01T02:10:00.000Z,110,2021-09-01T02:16:36.250Z,44.66265,100,-66.36605,100,16.7,100,16.2,100,12.8,100,0.0,100,3.5,100,,-1,,-1,,-1,,-1,,-1,,-1,,-1,,-1,1004.4,100,18.4,100,237,100,21.6,100,5.0,100,1,1,1.1,1,1004.4,1,1004.4,100,1004.4,100,18.4,100,18.0,100,237,100,240,100,21.6,100,21.2,100
2021-09-01T02:20:00Z,44490,9300300,WEST BAY OF FUNDY,0.0,44.66056,-66.3686,18,2021-09-01T02:20:00.000Z,110,2021-09-01T02:23:40.719Z,44.66265,100,-66.36607,100,16.7,100,16.2,100,12.8,100,0.0,100,3.5,100,,-1,,-1,,-1,,-1,,-1,,-1,,-1,,-1,1004.4,100,18.7,100,236,100,22.0,100,5.0,100,1,1,0.9,1,1004.4,1,1004.4,100,1004.3,100,18.7,100,18.0,100,236,100,239,100,22.0,100,21.6,100
2021-09-01T02:30:00Z,44490,9300300,WEST BAY OF FUNDY,0.0,44.66056,-66.3686,18,2021-09-01T02:30:00.000Z,110,2021-09-01T02:33:44.902Z,44.66263,100,-66.36603000000001,100,16.6,100,16.2,100,12.8,100,0.0,100,3.5,100,,-1,,-1,,-1,,-1,,-1,,-1,,-1,,-1,1004.4,100,18.7,100,232,100,22.0,100,5.0,100,1,1,0.7,1,1004.4,1,1004.4,100,1004.3,100,18.7,100,18.0,100,232,100,235,100,22.0,100,21.6,100
2021-09-01T02:40:00Z,44490,9300300,WEST BAY OF FUNDY,0.0,44.66056,-66.3686,18,2021-09-01T02:40:00.000Z,110,2021-09-01T02:43:41.552Z,44.66263,100,-66.36605,100,16.6,100,16.2,100,12.7,100,0.0,100,3.5,100,,-1,,-1,,-1,,-1,,-1,,-1,,-1,,-1,1004.3,100,20.9,100,242,100,24.5,100,5.0,100,1,1,0.6,1,1004.3,1,1004.3,100,1004.2,100,20.9,100,20.2,100,242,100,245,100,24.5,100,24.1,100
2021-09-01T02:50:00Z,44490,9300300,WEST BAY OF FUNDY,0.0,44.66056,-66.3686,18,2021-09-01T02:50:00.000Z,110,2021-09-01T02:54:42.997Z,44.662620000000004,100,-66.36601999999999,100,16.8,100,16.2,100,12.7,100,0.0,100,3.5,100,,-1,,-1,,-1,,-1,,-1,,-1,,-1,,-1,1004.4,100,22.0,100,243,100,26.3,100,5.0,100,1,1,0.6,1,1004.4,1,1004.4,100,1004.4,100,22.0,100,21.2,100,243,100,246,100,26.3,100,25.6,100
2021-09-01T03:00:00Z,44490,9300300,WEST BAY OF FUNDY,0.0,44.66056,-66.3686,18,2021-09-01T03:00:00.000Z,108,2021-09-01T03:02:50.345Z,44.66262,100,-66.36605,100,16.7,100,16.2,100,12.7,100,0.0,100,3.5,100,0.3,100,0.9,100,4.8,100,0.5,100,0.6,100,5.6,100,3.9,100,6.1,100,1004.5,100,20.5,100,236,100,24.8,100,5.0,100,1,1,0.6,1,1004.5,1,1004.5,100,1004.5,100,20.5,100,19.8,100,236,100,239,100,24.8,100,24.1,100
2021-09-01T03:10:00Z,44490,9300300,WEST BAY OF FUNDY,0.0,44.66056,-66.3686,18,2021-09-01T03:10:00.000Z,110,2021-09-01T03:16:52.646Z,44.66265,100,-66.36603000000001,100,16.6,100,16.2,100,12.8,100,0.0,100,3.5,100,,-1,,-1,,-1,,-1,,-1,,-1,,-1,,-1,1004.5,100,17.6,100,234,100,22.3,100,5.0,100,1,1,0.4,1,1004.5,1,1004.5,100,1004.5,100,17.6,100,17.3,100,234,100,236,100,22.3,100,21.6,100
2021-09-01T03:20:00Z,44490,9300300,WEST BAY OF FUNDY,0.0,44.66056,-66.3686,18,2021-09-01T03:20:00.000Z,110,2021-09-01T03:23:57.042Z,44.66257,100,-66.3659,100,16.6,100,16.2,100,12.8,100,0.0,100,3.5,100,,-1,,-1,,-1,,-1,,-1,,-1,,-1,,-1,1004.5,100,18.4,100,230,100,23.8,100,5.0,100,2,1,0.4,1,1004.5,1,1004.5,100,1004.5,100,18.4,100,18.0,100,230,100,233,100,23.8,100,23.0,100
2021-09-01T03:30:00Z,44490,9300300,WEST BAY OF FUNDY,0.0,44.66056,-66.3686,18,2021-09-01T03:30:00.000Z,110,2021-09-01T03:32:59.650Z,44.6626,100,-66.36596999999999,100,16.4,100,16.2,100,12.8,100,0.0,100,3.5,100,,-1,,-1,,-1,,-1,,-1,,-1,,-1,,-1,1004.5,100,19.4,100,236,100,22.3,100,5.0,100,3,1,0.3,1,1004.5,1,1004.5,100,1004.4,100,19.4,100,18.7,100,236,100,239,100,22.3,100,22.3,100
2021-09-01T03:40:00Z,44490,9300300,WEST BAY OF FUNDY,0.0,44.66056,-66.3686,18,2021-09-01T03:40:00.000Z,110,2021-09-01T03:44:00.113Z,44.66265,100,-66.36608000000001,100,16.5,100,16.3,100,12.7,100,0.0,100,3.5,100,,-1,,-1,,-1,,-1,,-1,,-1,,-1,,-1,1004.4,100,19.4,100,236,100,23.4,100,5.0,100,2,1,0.1,1,1004.4,1,1004.4,100,1004.3,100,19.4,100,18.7,100,236,100,239,100,23.4,100,22.7,100
2021-09-01T03:50:00Z,44490,9300300,WEST BAY OF FUNDY,0.0,44.66056,-66.3686,18,2021-09-01T03:50:00.000Z,110,2021-09-01T03:53:00.379Z,44.66258,100,-66.36595,100,16.5,100,16.3,100,12.7,100,0.0,100,3.5,100,,-1,,-1,,-1,,-1,,-1,,-1,,-1,,-1,1004.3,100,18.7,100,236,100,22.3,100,5.0,100,0,1,0.0,1,1004.3,1,1004.3,100,1004.3,100,18.7,100,18.0,100,236,100,239,100,22.3,100,22.0,100
2021-09-01T04:00:00Z,44490,9300300,WEST BAY OF FUNDY,0.0,44.66056,-66.3686,18,2021-09-01T04:00:00.000Z,108,2021-09-01T04:03:00.591Z,44.66258,100,-66.3658,100,16.6,100,16.3,100,12.7,100,0.0,100,3.5,100,0.3,100,0.9,100,5.2,100,0.5,100,0.6,100,5.5,100,4.0,100,6.5,100,1004.2,100,19.1,100,238,100,22.7,100,5.0,100,8,1,-0.1,1,1004.2,1,1004.2,100,1004.2,100,19.1,100,18.7,100,238,100,241,100,22.7,100,22.0,100
2021-09-01T04:10:00Z,44490,9300300,WEST BAY OF FUNDY,0.0,44.66056,-66.3686,18,2021-09-01T04:10:00.000Z,110,2021-09-01T04:16:02.552Z,44.6626,100,-66.36578,100,16.7,100,16.3,100,12.7,100,0.0,100,3.5,100,,-1,,-1,,-1,,-1,,-1,,-1,,-1,,-1,1004.2,100,20.9,100,247,100,25.9,100,5.0,100,8,1,-0.1,1,1004.2,1,1004.2,100,1004.2,100,20.9,100,20.5,100,247,100,250,100,25.9,100,25.6,100
2021-09-01T04:20:00Z,44490,9300300,WEST BAY OF FUNDY,0.0,44.66056,-66.3686,18,2021-09-01T04:20:00.000Z,110,2021-09-01T04:23:15.356Z,44.66267,100,-66.36598000000001,100,16.7,100,16.4,100,12.7,100,0.0,100,3.5,100,,-1,,-1,,-1,,-1,,-1,,-1,,-1,,-1,1004.2,100,22.3,100,252,100,26.3,100,5.0,100,8,1,-0.1,1,1004.2,1,1004.2,100,1004.2,100,22.3,100,22.3,100,252,100,254,100,26.3,100,26.3,100
2021-09-01T04:30:00Z,44490,9300300,WEST BAY OF FUNDY,0.0,44.66056,-66.3686,18,2021-09-01T04:30:00.000Z,110,2021-09-01T04:33:12.143Z,44.66268,100,-66.366,100,16.6,100,16.4,100,12.7,100,0.0,100,3.5,100,,-1,,-1,,-1,,-1,,-1,,-1,,-1,,-1,1004.2,100,23.0,100,258,100,29.5,100,5.0,100,0,1,-0.1,1,1004.2,1,1004.2,100,1004.1,100,23.0,100,23.4,100,258,100,260,100,29.5,100,29.9,100
2021-09-01T04:40:00Z,44490,9300300,WEST BAY OF FUNDY,0.0,44.66056,-66.3686,18,2021-09-01T04:40:00.000Z,110,2021-09-01T04:43:17.262Z,44.66268,100,-66.36591999999999,100,16.5,100,16.4,100,12.7,100,0.0,100,3.5,100,,-1,,-1,,-1,,-1,,-1,,-1,,-1,,-1,1004.2,100,24.5,100,260,100,29.2,100,5.0,100,8,1,-0.1,1,1004.2,1,1004.2,100,1004.2,100,24.5,100,24.5,100,260,100,262,100,29.2,100,29.2,100
2021-09-01T04:50:00Z,44490,9300300,WEST BAY OF FUNDY,0.0,44.66056,-66.3686,18,2021-09-01T04:50:00.000Z,110,2021-09-01T04:53:20.148Z,44.66278,100,-66.3659,100,16.3,100,16.4,100,12.7,100,0.0,100,3.5,100,,-1,,-1,,-1,,-1,,-1,,-1,,-1,,-1,1004.3,100,22.7,100,263,100,27.0,100,5.0,100,0,1,0.0,1,1004.3,1,1004.3,100,1004.3,100,22.7,100,23.0,100,263,100,265,100,27.0,100,27.0,100
2021-09-01T05:00:00Z,44490,9300300,WEST BAY OF FUNDY,0.0,44.66056,-66.3686,18,2021-09-01T05:00:00.000Z,108,2021-09-01T05:03:17.004Z,44.66282,100,-66.36578,100,16.2,100,16.5,100,12.7,100,0.0,100,3.5,100,0.4,100,1.2,100,4.6,100,0.6,100,0.8,100,4.8,100,3.7,100,6.3,100,1004.3,100,21.6,100,265,100,27.7,100,5.0,100,5,1,-0.1,1,1004.3,1,1004.3,100,1004.3,100,21.6,100,22.0,100,265,100,267,100,27.7,100,28.4,100
2021-09-01T05:10:00Z,44490,9300300,WEST BAY OF FUNDY,0.0,44.66056,-66.3686,18,2021-09-01T05:10:00.000Z,110,2021-09-01T05:16:20.543Z,44.66303,100,-66.36543,100,16.1,100,16.5,100,12.7,100,0.0,100,3.5,100,,-1,,-1,,-1,,-1,,-1,,-1,,-1,,-1,1004.4,100,20.9,100,262,100,25.9,100,5.0,100,4,1,0.0,1,1004.4,1,1004.4,100,1004.3,100,20.9,100,18.7,100,262,100,263,100,25.9,100,22.7,100
2021-09-01T05:20:00Z,44490,9300300,WEST BAY OF FUNDY,0.0,44.66056,-66.3686,18,2021-09-01T05:20:00.000Z,110,2021-09-01T05:23:28.706Z,44.66342,100,-66.3653,100,16.1,100,16.4,100,12.7,100,0.0,100,3.5,100,,-1,,-1,,-1,,-1,,-1,,-1,,-1,,-1,1004.4,100,20.2,100,265,100,24.1,100,5.0,100,4,1,0.0,1,1004.4,1,1004.4,100,1004.3,100,20.2,100,18.4,100,265,100,266,100,24.1,100,23.0,100
2021-09-01T05:30:00Z,44490,9300300,WEST BAY OF FUNDY,0.0,44.66056,-66.3686,18,2021-09-01T05:30:00.000Z,110,2021-09-01T05:39:36.801Z,44.66405,100,-66.36495,100,16.2,100,16.4,100,12.7,100,0.0,100,3.5,100,,-1,,-1,,-1,,-1,,-1,,-1,,-1,,-1,1004.4,100,18.4,100,267,100,21.6,100,5.0,100,5,1,0.0,1,1004.4,1,1004.4,100,1004.3,100,18.4,100,16.9,100,267,100,269,100,21.6,100,21.2,100
2021-09-01T05:40:00Z,44490,9300300,WEST BAY OF FUNDY,0.0,44.66056,-66.3686,18,2021-09-01T05:40:00.000Z,110,2021-09-01T05:43:35.478Z,44.66485,100,-66.36466999999999,100,16.2,100,16.4,100,12.7,100,0.0,100,3.5,100,,-1,,-1,,-1,,-1,,-1,,-1,,-1,,-1,1004.4,100,17.6,100,267,100,20.9,100,5.0,100,3,1,0.1,1,1004.4,1,1004.4,100,1004.4,100,17.6,100,16.2,100,267,100,269,100,20.9,100,20.5,100
2021-09-01T05:50:00Z,44490,9300300,WEST BAY OF FUNDY,0.0,44.66056,-66.3686,18,2021-09-01T05:50:00.000Z,110,2021-09-01T05:53:36.484Z,44.66527,100,-66.36442,100,16.3,100,16.4,100,12.7,100,0.0,100,3.5,100,,-1,,-1,,-1,,-1,,-1,,-1,,-1,,-1,1004.5,100,18.7,100,257,100,22.0,100,5.0,100,5,1,0.1,1,1004.5,1,1004.5,100,1004.4,100,18.7,100,18.0,100,257,100,258,100,22.0,100,20.9,100
2021-09-01T06:00:00Z,44490,9300300,WEST BAY OF FUNDY,0.0,44.66056,-66.3686,18,2021-09-01T06:00:00.000Z,108,2021-09-01T06:03:38.623Z,44.66532,100,-66.36445,100,16.2,100,16.3,100,12.7,100,0.0,100,3.5,100,0.4,100,1.0,100,4.8,100,0.7,100,0.8,100,5.0,100,3.7,100,6.3,100,1004.5,100,17.3,100,249,100,19.8,100,5.0,100,5,1,-0.1,1,1004.5,1,1004.5,100,1004.4,100,17.3,100,16.9,100,249,100,250,100,19.8,100,19.4,100
2021-09-01T06:10:00Z,44490,9300300,WEST BAY OF FUNDY,0.0,44.66056,-66.3686,18,2021-09-01T06:10:00.000Z,110,2021-09-01T06:16:37.586Z,44.66532,100,-66.36442,100,16.4,100,16.3,100,12.7,100,0.0,100,3.5,100,,-1,,-1,,-1,,-1,,-1,,-1,,-1,,-1,1004.4,100,17.3,100,254,100,20.5,100,5.0,100,6,1,-0.1,1,1004.4,1,1004.4,100,1004.4,100,17.3,100,17.3,100,254,100,255,100,20.5,100,20.9,100
2021-09-01T06:20:00Z,44490,9300300,WEST BAY OF FUNDY,0.0,44.66056,-66.3686,18,2021-09-01T06:20:00.000Z,110,2021-09-01T06:23:37.166Z,44.66532,100,-66.36437,100,16.4,100,16.4,100,12.7,100,0.0,100,3.5,100,,-1,,-1,,-1,,-1,,-1,,-1,,-1,,-1,1004.4,100,17.3,100,258,100,19.8,100,5.0,100,6,1,-0.2,1,1004.4,1,1004.4,100,1004.3,100,17.3,100,17.3,100,258,100,259,100,19.8,100,19.8,100
2021-09-01T06:30:00Z,44490,9300300,WEST BAY OF FUNDY,0.0,44.66056,-66.3686,18,2021-09-01T06:30:00.000Z,110,2021-09-01T06:33:37.765Z,44.66533,100,-66.36437,100,16.5,100,16.4,100,12.7,100,0.0,100,3.5,100,,-1,,-1,,-1,,-1,,-1,,-1,,-1,,-1,1004.4,100,15.8,100,258,100,18.4,100,5.0,100,6,1,-0.1,1,1004.4,1,1004.4,100,1004.3,100,15.8,100,15.8,100,258,100,259,100,18.4,100,18.4,100
2021-09-01T06:40:00Z,44490,9300300,WEST BAY OF FUNDY,0.0,44.66056,-66.3686,18,2021-09-01T06:40:00.000Z,110,2021-09-01T06:43:40.992Z,44.66528,100,-66.3642,100,16.5,100,16.4,100,12.7,100,0.0,100,3.5,100,,-1,,-1,,-1,,-1,,-1,,-1,,-1,,-1,1004.3,100,15.1,100,268,100,17.3,100,5.0,100,5,1,0.0,1,1004.3,1,1004.3,100,1004.3,100,15.1,100,15.5,100,268,100,269,100,17.3,100,17.6,100
2021-09-01T06:50:00Z,44490,9300300,WEST BAY OF FUNDY,0.0,44.66056,-66.3686,18,2021-09-01T06:50:00.000Z,110,2021-09-01T06:52:56.103Z,44.66527,100,-66.36413,100,16.7,100,16.4,100,12.7,100,0.0,100,3.5,100,,-1,,-1,,-1,,-1,,-1,,-1,,-1,,-1,1004.3,100,15.8,100,278,100,18.7,100,5.0,100,8,1,-0.1,1,1004.3,1,1004.3,100,1004.2,100,15.8,100,15.8,100,278,100,279,100,18.7,100,18.7,100
2021-09-01T07:00:00Z,44490,9300300,WEST BAY OF FUNDY,0.0,44.66056,-66.3686,18,2021-09-01T07:00:00.000Z,108,2021-09-01T07:02:58.073Z,44.66528,100,-66.36412,100,16.9,100,16.4,100,12.7,100,0.0,100,3.5,100,0.4,100,1.0,100,4.7,100,0.6,100,0.8,100,5.2,100,3.7,100,6.7,100,1004.3,100,16.6,100,278,100,18.7,100,5.0,100,0,1,0.1,1,1004.3,1,1004.3,100,1004.2,100,16.6,100,16.6,100,278,100,279,100,18.7,100,18.4,100
2021-09-01T07:10:00Z,44490,9300300,WEST BAY OF FUNDY,0.0,44.66056,-66.3686,18,2021-09-01T07:10:00.000Z,110,2021-09-01T07:15:55.615Z,44.665279999999996,100,-66.36408,100,17.5,100,16.4,100,12.7,100,0.0,100,3.5,100,,-1,,-1,,-1,,-1,,-1,,-1,,-1,,-1,1004.4,100,19.8,100,282,100,27.0,100,5.0,100,1,1,0.1,1,1004.4,1,1004.4,100,1004.3,100,19.8,100,19.8,100,282,100,283,100,27.0,100,26.6,100
2021-09-01T07:20:00Z,44490,9300300,WEST BAY OF FUNDY,0.0,44.66056,-66.3686,18,2021-09-01T07:20:00.000Z,110,2021-09-01T07:23:00.336Z,44.66525,100,-66.36407,100,17.4,100,16.3,100,12.7,100,0.0,100,3.5,100,,-1,,-1,,-1,,-1,,-1,,-1,,-1,,-1,1004.5,100,16.6,100,283,100,19.8,100,5.0,100,1,1,0.3,1,1004.5,1,1004.5,100,1004.4,100,16.6,100,16.6,100,283,100,284,100,19.8,100,19.8,100
2021-09-01T07:30:00Z,44490,9300300,WEST BAY OF FUNDY,0.0,44.66056,-66.3686,18,2021-09-01T07:30:00.000Z,110,2021-09-01T07:34:00.819Z,44.66527,100,-66.36403,100,17.4,100,16.3,100,12.7,100,0.0,100,3.5,100,,-1,,-1,,-1,,-1,,-1,,-1,,-1,,-1,1004.6,100,16.9,100,279,100,18.7,100,5.0,100,2,1,0.4,1,1004.6,1,1004.6,100,1004.5,100,16.9,100,16.9,100,279,100,280,100,18.7,100,18.7,100
2021-09-01T07:40:00Z,44490,9300300,WEST BAY OF FUNDY,0.0,44.66056,-66.3686,18,2021-09-01T07:40:00.000Z,110,2021-09-01T07:43:01.196Z,44.66528,100,-66.36405,100,17.4,100,16.3,100,12.7,100,0.0,100,3.5,100,,-1,,-1,,-1,,-1,,-1,,-1,,-1,,-1,1004.6,100,16.2,100,279,100,18.0,100,5.0,100,3,1,0.4,1,1004.6,1,1004.6,100,1004.6,100,16.2,100,16.2,100,279,100,280,100,18.0,100,18.0,100
2021-09-01T07:50:00Z,44490,9300300,WEST BAY OF FUNDY,0.0,44.66056,-66.3686,18,2021-09-01T07:50:00.000Z,110,2021-09-01T07:53:03.089Z,44.66522,100,-66.36417,100,17.6,100,16.3,100,12.6,100,0.0,100,3.5,100,,-1,,-1,,-1,,-1,,-1,,-1,,-1,,-1,1004.7,100,15.8,100,284,100,21.2,100,5.0,100,3,1,0.4,1,1004.7,1,1004.7,100,1004.7,100,15.8,100,15.8,100,284,100,285,100,21.2,100,21.2,100
2021-09-01T08:00:00Z,44490,9300300,WEST BAY OF FUNDY,0.0,44.66056,-66.3686,18,2021-09-01T08:00:00.000Z,108,2021-09-01T08:03:02.462Z,44.66527,100,-66.36403,100,17.8,100,16.3,100,12.7,100,0.0,100,3.5,100,0.4,100,0.9,100,5.0,100,0.6,100,0.8,100,5.2,100,3.8,100,6.3,100,1004.7,100,17.3,100,290,100,19.4,100,5.0,100,3,1,0.4,1,1004.7,1,1004.7,100,1004.7,100,17.3,100,17.6,100,290,100,291,100,19.4,100,19.8,100
2021-09-01T08:10:00Z,44490,9300300,WEST BAY OF FUNDY,0.0,44.66056,-66.3686,18,2021-09-01T08:10:00.000Z,110,2021-09-01T08:16:11.712Z,44.66527,100,-66.36403,100,18.0,100,16.2,100,12.7,100,0.0,100,3.5,100,,-1,,-1,,-1,,-1,,-1,,-1,,-1,,-1,1004.9,100,18.4,100,295,100,21.6,100,5.0,100,3,1,0.5,1,1004.9,1,1004.9,100,1004.8,100,18.4,100,18.7,100,295,100,296,100,21.6,100,22.0,100
2021-09-01T08:20:00Z,44490,9300300,WEST BAY OF FUNDY,0.0,44.66056,-66.3686,18,2021-09-01T08:20:00.000Z,110,2021-09-01T08:23:14.247Z,44.66528,100,-66.3641,100,18.1,100,16.2,100,12.7,100,0.0,100,3.5,100,,-1,,-1,,-1,,-1,,-1,,-1,,-1,,-1,1004.9,100,19.4,100,290,100,21.2,100,5.0,100,3,1,0.5,1,1004.9,1,1004.9,100,1004.9,100,19.4,100,19.4,100,290,100,292,100,21.2,100,21.6,100
2021-09-01T08:30:00Z,44490,9300300,WEST BAY OF FUNDY,0.0,44.66056,-66.3686,18,2021-09-01T08:30:00.000Z,110,2021-09-01T08:33:15.030Z,44.665279999999996,100,-66.36413,100,18.1,100,16.1,100,12.7,100,0.0,100,3.5,100,,-1,,-1,,-1,,-1,,-1,,-1,,-1,,-1,1005.0,100,19.4,100,288,100,21.2,100,5.0,100,3,1,0.7,1,1005.0,1,1005.0,100,1005.0,100,19.4,100,19.1,100,288,100,289,100,21.2,100,21.2,100
2021-09-01T08:40:00Z,44490,9300300,WEST BAY OF FUNDY,0.0,44.66056,-66.3686,18,2021-09-01T08:40:00.000Z,110,2021-09-01T08:43:16.969Z,44.66523,100,-66.36402,100,18.0,100,16.1,100,12.6,100,0.0,100,3.5,100,,-1,,-1,,-1,,-1,,-1,,-1,,-1,,-1,1005.1,100,18.4,100,287,100,20.9,100,5.0,100,3,1,0.7,1,1005.1,1,1005.1,100,1005.0,100,18.4,100,18.4,100,287,100,288,100,20.9,100,20.9,100
2021-09-01T08:50:00Z,44490,9300300,WEST BAY OF FUNDY,0.0,44.66056,-66.3686,18,2021-09-01T08:50:00.000Z,110,2021-09-01T08:53:19.406Z,44.66525,100,-66.36395,100,17.9,100,16.1,100,12.6,100,0.0,100,3.5,100,,-1,,-1,,-1,,-1,,-1,,-1,,-1,,-1,1005.2,100,18.7,100,292,100,21.6,100,5.0,100,3,1,0.7,1,1005.2,1,1005.2,100,1005.1,100,18.7,100,18.7,100,292,100,293,100,21.6,100,21.6,100
2021-09-01T09:00:00Z,44490,9300300,WEST BAY OF FUNDY,0.0,44.66056,-66.3686,18,2021-09-01T09:00:00.000Z,108,2021-09-01T09:03:20.655Z,44.66527,100,-66.36398,100,17.8,100,16.1,100,12.6,100,0.0,100,3.5,100,0.4,100,0.9,100,5.5,100,0.6,100,0.7,100,6.0,100,4.2,100,6.9,100,1005.2,100,17.3,100,289,100,19.4,100,5.0,100,3,1,0.8,1,1005.2,1,1005.2,100,1005.2,100,17.3,100,17.3,100,289,100,290,100,19.4,100,19.1,100
2021-09-01T09:10:00Z,44490,9300300,WEST BAY OF FUNDY,0.0,44.66056,-66.3686,18,2021-09-01T09:10:00.000Z,110,2021-09-01T09:16:21.021Z,44.66523,100,-66.36397,100,17.5,100,16.1,100,12.6,100,0.0,100,3.5,100,,-1,,-1,,-1,,-1,,-1,,-1,,-1,,-1,1005.4,100,16.9,100,284,100,19.1,100,5.0,100,3,1,1.0,1,1005.4,1,1005.4,100,1005.3,100,16.9,100,16.9,100,284,100,285,100,19.1,100,19.1,100
2021-09-01T09:20:00Z,44490,9300300,WEST BAY OF FUNDY,0.0,44.66056,-66.3686,18,2021-09-01T09:20:00.000Z,110,2021-09-01T09:23:21.502Z,44.66525,100,-66.36398,100,17.4,100,16.1,100,12.6,100,0.0,100,3.5,100,,-1,,-1,,-1,,-1,,-1,,-1,,-1,,-1,1005.4,100,16.6,100,281,100,18.0,100,5.0,100,3,1,1.1,1,1005.4,1,1005.4,100,1005.4,100,16.6,100,16.6,100,281,100,282,100,18.0,100,17.6,100
2021-09-01T09:30:00Z,44490,9300300,WEST BAY OF FUNDY,0.0,44.66056,-66.3686,18,2021-09-01T09:30:00.000Z,110,2021-09-01T09:33:34.222Z,44.66527,100,-66.36403,100,17.2,100,16.1,100,12.6,100,0.0,100,3.5,100,,-1,,-1,,-1,,-1,,-1,,-1,,-1,,-1,1005.6,100,15.1,100,281,100,17.3,100,5.0,100,3,1,1.2,1,1005.6,1,1005.6,100,1005.5,100,15.1,100,15.1,100,281,100,282,100,17.3,100,17.3,100